| time (UTC) | temp C | wind direction | speed KPH | gust KPH | rain 1hr cm | rain 24hr cm | rain mn cm | humidity % | barometer mb |
| 20260510184514 | 13 | 32 | 0.0 | 4.8 | 0.00 | 1.27 | 1.27 | 89 | 1011.5 |
| 20260510183034 | 13 | 71 | 1.6 | 6.4 | 0.00 | 1.27 | 1.27 | 89 | 1011.3 |
| 20260510181525 | 13 | 36 | 3.2 | 6.4 | 0.00 | 1.27 | 1.27 | 88 | 1011.3 |
| 20260510180014 | 13 | 54 | 1.6 | 6.4 | 0.00 | 1.27 | 1.27 | 88 | 1011.2 |
| 20260510174513 | 13 | 46 | 4.8 | 8.0 | 0.00 | 1.27 | 1.27 | 88 | 1011.2 |
| 20260510173011 | 13 | 77 | 1.6 | 6.4 | 0.00 | 1.27 | 1.27 | 87 | 1011.3 |
| 20260510171510 | 14 | 32 | 1.6 | 6.4 | 0.00 | 1.27 | 1.27 | 88 | 1011.3 |
| 20260510170010 | 14 | 84 | 1.6 | 8.0 | 0.00 | 1.27 | 1.27 | 87 | 1011.3 |
| 20260510164514 | 14 | 115 | 3.2 | 11.3 | 0.00 | 1.27 | 1.27 | 87 | 1011.3 |
| 20260510163008 | 14 | 74 | 1.6 | 9.7 | 0.00 | 1.27 | 1.27 | 86 | 1011.3 |
| 20260510161506 | 14 | 60 | 1.6 | 8.0 | 0.03 | 1.27 | 1.27 | 84 | 1011.7 |
| 20260510160006 | 14 | 105 | 3.2 | 6.4 | 0.05 | 1.27 | 1.27 | 84 | 1011.7 |
| 20260510154504 | 14 | 153 | 1.6 | 3.2 | 0.05 | 1.27 | 1.27 | 84 | 1011.8 |
| 20260510153005 | 15 | 153 | 1.6 | 4.8 | 0.05 | 1.27 | 1.27 | 84 | 1011.9 |
| 20260510151504 | 15 | 153 | 0.0 | 6.4 | 0.05 | 1.24 | 1.24 | 84 | 1012.0 |
| 20260510150001 | 15 | 117 | 1.6 | 6.4 | 0.00 | 1.19 | 1.19 | 82 | 1012.0 |
| 20260510144501 | 15 | 133 | 3.2 | 8.0 | 0.00 | 1.19 | 1.19 | 81 | 1012.1 |
| 20260510143100 | 15 | 165 | 3.2 | 8.0 | 0.00 | 1.19 | 1.19 | 81 | 1012.2 |
| 20260510141604 | 15 | 53 | 3.2 | 9.7 | 0.00 | 1.19 | 1.19 | 81 | 1012.2 |
| 20260510140059 | 15 | 74 | 3.2 | 8.0 | 0.00 | 1.19 | 1.19 | 83 | 1012.3 |
| 20260510134606 | 15 | 110 | 3.2 | 8.0 | 0.00 | 1.19 | 1.19 | 83 | 1012.4 |
| 20260510133159 | 15 | 88 | 3.2 | 12.9 | 0.00 | 1.19 | 1.19 | 83 | 1012.6 |
| 20260510131603 | 14 | 121 | 3.2 | 9.7 | 0.00 | 1.19 | 1.19 | 84 | 1012.7 |
| 20260510130057 | 14 | 148 | 3.2 | 8.0 | 0.00 | 1.19 | 1.19 | 85 | 1012.8 |
| 20260510124558 | 14 | 148 | 3.2 | 11.3 | 0.00 | 1.19 | 1.19 | 87 | 1012.8 |
| 20260510123101 | 14 | 115 | 0.0 | 9.7 | 0.00 | 1.19 | 1.19 | 87 | 1012.9 |
| 20260510121551 | 14 | 37 | 4.8 | 14.5 | 0.03 | 1.19 | 1.19 | 87 | 1013.1 |
| 20260510120052 | 14 | 29 | 4.8 | 9.7 | 0.05 | 1.19 | 1.19 | 87 | 1013.2 |
| 20260510114551 | 14 | 36 | 4.8 | 9.7 | 0.08 | 1.19 | 1.19 | 88 | 1013.2 |
| 20260510113049 | 14 | 28 | 3.2 | 8.0 | 0.10 | 1.19 | 1.19 | 89 | 1013.3 |
| 20260510111551 | 14 | 42 | 1.6 | 6.4 | 0.10 | 1.17 | 1.17 | 89 | 1013.4 |
| 20260510110049 | 15 | 26 | 1.6 | 9.7 | 0.15 | 1.17 | 1.17 | 91 | 1013.3 |
| 20260510104548 | 15 | 29 | 3.2 | 8.0 | 0.15 | 1.12 | 1.12 | 91 | 1013.5 |
| 20260510103045 | 14 | 333 | 3.2 | 6.4 | 0.15 | 1.09 | 1.09 | 90 | 1013.5 |
| 20260510101542 | 14 | 44 | 3.2 | 8.0 | 0.13 | 1.07 | 1.07 | 90 | 1013.7 |
| 20260510100042 | 14 | 9 | 3.2 | 6.4 | 0.08 | 1.02 | 1.02 | 90 | 1013.7 |
| 20260510094543 | 14 | 59 | 1.6 | 4.8 | 0.05 | 0.99 | 0.99 | 89 | 1013.8 |
| 20260510093040 | 14 | 31 | 1.6 | 6.4 | 0.05 | 0.97 | 0.97 | 89 | 1013.9 |
| 20260510091540 | 14 | 30 | 3.2 | 8.0 | 0.10 | 0.94 | 0.94 | 90 | 1013.7 |
| 20260510090039 | 13 | 28 | 6.4 | 9.7 | 0.13 | 0.94 | 0.94 | 91 | 1013.8 |
| 20260510084537 | 13 | 37 | 3.2 | 8.0 | 0.20 | 0.91 | 0.91 | 92 | 1013.8 |
| 20260510083034 | 13 | 36 | 1.6 | 4.8 | 0.30 | 0.89 | 0.89 | 92 | 1013.8 |
| 20260510081541 | 13 | 346 | 1.6 | 4.8 | 0.28 | 0.84 | 0.84 | 92 | 1013.7 |
| 20260510080033 | 13 | 36 | 3.2 | 9.7 | 0.25 | 0.81 | 0.81 | 91 | 1013.7 |
| 20260510074533 | 13 | 44 | 1.6 | 8.0 | 0.15 | 0.71 | 0.71 | 91 | 1013.6 |
| 20260510073034 | 13 | 44 | 3.2 | 8.0 | 0.05 | 0.61 | 0.61 | 90 | 1013.5 |
| 20260510071531 | 14 | 348 | 3.2 | 8.0 | 0.00 | 0.56 | 0.56 | 90 | 1013.3 |
| 20260510070031 | 13 | 360 | 4.8 | 12.9 | 0.00 | 0.56 | 0.56 | 90 | 1013.2 |
| 20260510064538 | 13 | 360 | 3.2 | 8.0 | 0.00 | 0.56 | 0.56 | 91 | 1013.3 |
| 20260510063034 | 13 | 22 | 1.6 | 6.4 | 0.00 | 0.56 | 0.56 | 91 | 1013.3 |
| 20260510061523 | 13 | 333 | 3.2 | 6.4 | 0.00 | 0.56 | 0.56 | 91 | 1013.2 |
| 20260510060025 | 13 | 275 | 0.0 | 4.8 | 0.00 | 0.56 | 0.56 | 90 | 1013.2 |
| 20260510054524 | 13 | 246 | 0.0 | 4.8 | 0.03 | 0.56 | 0.56 | 90 | 1013.0 |
| 20260510053019 | 13 | 260 | 0.0 | 6.4 | 0.03 | 0.56 | 0.56 | 90 | 1013.0 |
| 20260510051519 | 13 | 267 | 0.0 | 6.4 | 0.03 | 0.56 | 0.56 | 90 | 1012.8 |
| 20260510050018 | 13 | 337 | 1.6 | 4.8 | 0.03 | 0.56 | 0.56 | 90 | 1012.5 |
| 20260510044517 | 13 | 351 | 0.0 | 4.8 | 0.00 | 0.53 | 0.53 | 89 | 1012.3 |
| 20260510043017 | 13 | 346 | 3.2 | 6.4 | 0.00 | 0.53 | 0.53 | 89 | 1012.0 |
| 20260510041516 | 13 | 31 | 6.4 | 12.9 | 0.00 | 0.53 | 0.53 | 89 | 1012.0 |
| 20260510040017 | 13 | 41 | 3.2 | 8.0 | 0.00 | 0.53 | 0.53 | 89 | 1012.1 |
| 20260510034515 | 13 | 360 | 3.2 | 14.5 | 0.00 | 0.53 | 0.53 | 88 | 1012.1 |
| 20260510033013 | 13 | 16 | 6.4 | 12.9 | 0.00 | 0.53 | 0.53 | 90 | 1012.2 |
| 20260510031516 | 13 | 32 | 1.6 | 6.4 | 0.00 | 0.53 | 0.53 | 90 | 1012.4 |
| 20260510030011 | 13 | 26 | 3.2 | 9.7 | 0.00 | 0.53 | 0.53 | 90 | 1012.6 |
| 20260510024507 | 13 | 16 | 3.2 | 4.8 | 0.00 | 0.53 | 0.53 | 89 | 1012.7 |
| 20260510023006 | 13 | 34 | 3.2 | 14.5 | 0.03 | 0.53 | 0.53 | 89 | 1012.7 |
| 20260510021504 | 14 | 41 | 4.8 | 14.5 | 0.03 | 0.53 | 0.53 | 87 | 1013.0 |
| 20260510020005 | 14 | 38 | 9.7 | 19.3 | 0.05 | 0.53 | 0.53 | 87 | 1013.2 |
| 20260510014502 | 13 | 30 | 11.3 | 16.1 | 0.25 | 0.53 | 0.53 | 89 | 1013.3 |
| 20260510013057 | 13 | 10 | 3.2 | 6.4 | 0.51 | 0.51 | 0.51 | 87 | 1013.5 |
| 20260510011557 | 14 | 34 | 3.2 | 4.8 | 0.51 | 0.51 | 0.51 | 86 | 1013.6 |
| 20260510010055 | 15 | 32 | 4.8 | 8.0 | 0.51 | 0.51 | 0.51 | 84 | 1013.4 |
| 20260510004553 | 15 | 120 | 1.6 | 6.4 | 0.28 | 0.28 | 0.28 | 79 | 1013.9 |
| 20260510003054 | 15 | 355 | 1.6 | 8.0 | 0.00 | 0.00 | 0.00 | 77 | 1013.4 |
| 20260510001553 | 14 | 17 | 4.8 | 9.7 | 0.00 | 0.00 | 0.00 | 78 | 1013.6 |
| 20260510000051 | 14 | 40 | 6.4 | 9.7 | 0.00 | 0.00 | 0.00 | 79 | 1013.8 |
| 20260509234547 | 13 | 43 | 4.8 | 6.4 | 0.00 | 0.00 | 0.00 | 79 | 1013.9 |
| 20260509233051 | 13 | 30 | 1.6 | 4.8 | 0.00 | 0.00 | 0.00 | 79 | 1013.9 |
| 20260509231546 | 13 | 22 | 3.2 | 9.7 | 0.00 | 0.00 | 0.00 | 79 | 1014.0 |
| 20260509230044 | 14 | 9 | 4.8 | 8.0 | 0.00 | 0.00 | 0.00 | 79 | 1013.9 |
| 20260509224553 | 14 | 47 | 3.2 | 8.0 | 0.00 | 0.00 | 0.00 | 79 | 1014.1 |
| 20260509223041 | 14 | 351 | 4.8 | 8.0 | 0.00 | 0.00 | 0.00 | 78 | 1014.1 |
| 20260509221554 | 15 | 38 | 3.2 | 6.4 | 0.00 | 0.00 | 0.00 | 77 | 1014.0 |
| 20260509220036 | 15 | 30 | 3.2 | 8.0 | 0.00 | 0.00 | 0.00 | 77 | 1014.1 |
| 20260509214535 | 15 | 40 | 6.4 | 12.9 | 0.00 | 0.00 | 0.00 | 76 | 1014.0 |
| 20260509213034 | 15 | 40 | 1.6 | 4.8 | 0.00 | 0.00 | 0.00 | 76 | 1014.0 |
| 20260509211534 | 15 | 48 | 3.2 | 6.4 | 0.00 | 0.00 | 0.00 | 75 | 1013.9 |
| 20260509210034 | 15 | 36 | 1.6 | 6.4 | 0.00 | 0.00 | 0.00 | 75 | 1013.9 |
| 20260509204533 | 16 | 360 | 4.8 | 6.4 | 0.00 | 0.00 | 0.00 | 74 | 1013.9 |
| 20260509203032 | 16 | 360 | 3.2 | 6.4 | 0.00 | 0.00 | 0.00 | 73 | 1013.8 |
| 20260509201539 | 16 | 46 | 4.8 | 6.4 | 0.00 | 0.00 | 0.00 | 72 | 1013.9 |
| 20260509200031 | 17 | 44 | 1.6 | 4.8 | 0.00 | 0.00 | 0.00 | 70 | 1013.7 |
| 20260509194531 | 17 | 44 | 0.0 | 3.2 | 0.00 | 0.00 | 0.00 | 69 | 1013.5 |
| 20260509193030 | 17 | 44 | 4.8 | 8.0 | 0.00 | 0.00 | 0.00 | 67 | 1013.2 |
| 20260509191530 | 18 | 360 | 3.2 | 8.0 | 0.00 | 0.00 | 0.00 | 64 | 1013.1 |
| 20260509190029 | 19 | 37 | 1.6 | 4.8 | 0.00 | 0.00 | 0.00 | 61 | 1013.1 |